This demonstration page uses our WeatherBlox Daily Observations layout. Learn more.

Left ArrowRight Arrow

Hourly Observations for May 18, 2018

Temp ( °F °C ) Dew Point ( °F °C ) Humidity (%) Winds ( mph kmh ) Pressure ( in mb ) Visibility ( mi km ) Precip ( " mm )
12:56 am 00:56 Clear 69 20.6 55 12.8 61 61 SE 22 35 29.79 1009 10 16 0.00 0.00
1:56 am 01:56 Clear 67 19.4 56 13.3 68 68 SSE 16 26 29.80 1009 10 16 0.00 0.00
2:56 am 02:56 Mostly Cloudy 66 18.9 57 13.9 73 73 SSE 15 24 29.82 1010 10 16 0.00 0.00
3:56 am 03:56 Cloudy 65 18.3 58 14.4 78 78 SSE 15 24 29.81 1010 10 16 0.00 0.00
4:51 am 04:51 Cloudy with Nearby Thunderstorms 64 18 57 14 78 78 S 12 19 29.85 1011 10 16 0.00 0.00
4:56 am 04:56 Cloudy with Nearby Thunderstorms 65 18.3 57 13.9 76 76 W 16 26 29.88 1012 10 16 0.00 0.00
5:47 am 05:47 Cloudy with Light Rain 63 17 57 14 83 83 N 15 24 29.85 1011 10 16 0.00 0.03
5:56 am 05:56 Cloudy with Light Rain 60 15.6 57 13.9 90 90 NE 13 20 29.85 1011 10 16 0.00 0.03
6:56 am 06:56 Cloudy with Light Rain 60 15.6 58 14.4 93 93 NNW 14 22 29.88 1012 10 16 0.00 0.03
7:12 am 07:12 Cloudy with Nearby Thunderstorms 59 15 57 14 94 94 N 16 26 29.85 1011 10 16 0.02 0.51
7:24 am 07:24 Cloudy with Thunderstorms 57 14 57 14 100 100 N 23 37 29.91 1013 9 14 0.03 0.76
7:32 am 07:32 Cloudy with Thunderstorms 57 14 57 14 100 100 NNW 18 30 29.94 1014 7 11 0.09 2.29
7:45 am 07:45 Cloudy with Rain 57 14 55 13 94 94 N 22 35 29.94 1014 5 8 0.00 0.00
7:56 am 07:56 Cloudy with Light Rain 58 14.4 56 13.3 93 93 N 21 33 29.91 1013 9 14 0.21 5.33
8:56 am 08:56 Cloudy with Light Rain 57 13.9 56 13.3 96 96 NNE 18 30 29.93 1014 10 16 0.08 2.03
9:25 am 09:25 Cloudy with Nearby Thunderstorms 57 14 55 13 94 94 ENE 32 52 29.88 1012 8 13 0.00 0.00
9:56 am 09:56 Mostly Cloudy with Light Rain 59 15 56 13.3 90 90 ENE 23 37 29.79 1009 10 16 0.11 2.79
10:56 am 10:56 Mostly Cloudy 60 15.6 57 13.9 90 90 E 9 15 29.80 1009 10 16 0.00 0.03
11:56 am 11:56 Partly Cloudy 63 17.2 58 14.4 84 84 ESE 14 22 29.83 1010 10 16 0.00 0.00
12:56 pm 12:56 Cloudy with Nearby Thunderstorms 65 18.3 59 15 81 81 ESE 13 20 29.83 1010 10 16 0.00 0.00
1:56 pm 13:56 Cloudy with Nearby Thunderstorms 64 17.8 59 15 84 84 SE 15 24 29.85 1011 10 16 0.01 0.25
2:10 pm 14:10 Cloudy 64 18 61 16 88 88 SE 16 26 29.83 1010 10 16 0.00 0.00
2:56 pm 14:56 Cloudy 65 18.3 61 16.1 87 87 NE 7 11 29.86 1011 10 16 0.00 0.00
3:56 pm 15:56 Cloudy 65 18.3 60 15.6 84 84 NE 8 13 29.86 1011 10 16 0.00 0.00
4:56 pm 16:56 Cloudy 65 18.3 60 15.6 84 84 NE 12 19 29.86 1011 10 16 0.00 0.00
5:56 pm 17:56 Cloudy 66 18.9 61 16.1 84 84 NE 13 20 29.87 1012 10 16 0.00 0.00
6:56 pm 18:56 Cloudy 65 18.3 59 15 81 81 NE 8 13 29.86 1011 10 16 0.00 0.00
7:56 pm 19:56 Mostly Cloudy 64 17.8 61 16.1 90 90 NE 13 20 29.84 1011 10 16 0.00 0.00
8:56 pm 20:56 Cloudy 63 17.2 59 15 87 87 NE 13 20 29.83 1010 10 16 0.00 0.00
9:56 pm 21:56 Cloudy 63 17.2 60 15.6 90 90 NE 10 17 29.84 1011 10 16 0.00 0.00
10:56 pm 22:56 Cloudy 63 17.2 59 15 87 87 ENE 9 15 29.86 1011 10 16 0.00 0.00
11:15 pm 23:15 Cloudy with Nearby Thunderstorms 63 17 61 16 94 94 W 14 22 29.88 1012 10 16 0.00 0.00
11:48 pm 23:48 Cloudy with Thunderstorms 63 17 59 15 88 88 E 7 11 29.88 1012 9 14 0.08 2.03
11:56 pm 23:56 Cloudy with Thunderstorms 62 16.7 60 15.6 93 93 NE 7 11 29.90 1013 9 14 0.12 3.05

Powered by AerisWeather